カタログに戻る

STARLINK-1554

運用中通信VLEO
NORAD 46055·PAYLOAD·🇺🇸 United States

打ち上げ Aug 7, 2020 から Cape Canaveral Space Force Station

Loading…

次のパス (今後24時間)

TLE

最新Source: CelesTrak SupGP

元期: Sep 14, 2026, 20:23 UTC

1 46055C 20055AE  26257.84979167 -.00029355  00000+0 -94403-3 0  2570
2 46055  53.1598 313.7321 0001261  79.2606 125.3189 15.31714538    11

AllMySatでSTARLINK-1554をリアルタイム追跡

Download on the App Store